,,PA_Meas_PMT16A,,PR_Meas_QMR101_102,,RH_Meas_QMH101,,SR_Meas_QMS101,,TA_Meas_QMH101,,GenWind,,GenWind,
time,status,PA,status,PR,status,RH,status,SR,status,TA,status,DirAvg,status,SpdAvg,
2016-02-16, 07:52:04,VALID,920.063,VALID,0,VALID,98.0981,VALID,77.8948,VALID,20.0163,VALID,179,VALID,0,
2016-02-16, 07:53:04,VALID,920.038,VALID,0,VALID,97.7093,VALID,79.6139,VALID,20.0148,VALID,174,VALID,0.729297,
2016-02-16, 07:54:04,VALID,920.072,VALID,0,VALID,97.6712,VALID,81.333,VALID,19.9953,VALID,176,VALID,0.173828,
2016-02-16, 08:07:04,VALID,920.247,VALID,0,VALID,89.0263,VALID,114.747,VALID,20.4439,VALID,167,VALID,0,
2016-02-16, 08:08:04,VALID,920.248,VALID,0,VALID,88.424,VALID,123.987,VALID,20.5024,VALID,134,VALID,0.0863281,
2016-02-16, 08:09:04,VALID,920.251,VALID,0,VALID,88.1801,VALID,151.277,VALID,20.5609,VALID,134,VALID,0.00429688,
2016-02-16, 08:10:04,VALID,920.269,VALID,0,VALID,89.3388,VALID,146.12,VALID,20.639,VALID,134,VALID,0,
2016-02-16, 08:11:04,VALID,920.294,VALID,0,VALID,88.0657,VALID,157.079,VALID,20.717,VALID,134,VALID,0,
2016-02-16, 08:12:04,VALID,920.309,VALID,0,VALID,86.9374,VALID,146.979,VALID,20.8145,VALID,147,VALID,0,
2016-02-16, 08:13:04,VALID,920.333,VALID,0,VALID,86.8231,VALID,160.517,VALID,20.8714,VALID,146,VALID,0,
2016-02-16, 08:14:04,VALID,920.354,VALID,0,VALID,85.3441,VALID,132.905,VALID,20.9901,VALID,164,VALID,0,
2016-02-16, 08:15:04,VALID,920.331,VALID,0,VALID,85.5424,VALID,129.574,VALID,21.0486,VALID,168,VALID,0,
2016-02-16, 08:16:04,VALID,920.332,VALID,0,VALID,84.2159,VALID,128.822,VALID,21.0681,VALID,171,VALID,0,
2016-02-16, 08:17:04,VALID,920.393,VALID,0,VALID,84.6123,VALID,129.896,VALID,21.0876,VALID,170,VALID,0.0242187,
2016-02-16, 08:18:04,VALID,920.402,VALID,0,VALID,84.8562,VALID,131.83,VALID,21.0876,VALID,161,VALID,0,
2016-02-16, 08:19:04,VALID,920.412,VALID,0,VALID,84.7724,VALID,134.624,VALID,21.0876,VALID,162,VALID,0,
2016-02-16, 08:20:04,VALID,920.417,VALID,0,VALID,84.9172,VALID,138.921,VALID,21.1071,VALID,177,VALID,0,
2016-02-16, 08:21:04,VALID,920.414,VALID,0,VALID,84.658,VALID,143.434,VALID,21.1071,VALID,161,VALID,0.000390625,
2016-02-16, 08:22:04,VALID,920.436,VALID,0,VALID,84.0177,VALID,146.12,VALID,21.1055,VALID,138,VALID,0.657422,
2016-02-16, 08:23:04,VALID,920.443,VALID,0,VALID,84.9858,VALID,150.095,VALID,21.1445,VALID,147,VALID,0,
2016-02-16, 08:24:04,VALID,920.457,VALID,0,VALID,84.9477,VALID,155.79,VALID,21.1852,VALID,167,VALID,0,
2016-02-16, 08:25:04,VALID,920.477,VALID,0,VALID,84.5437,VALID,162.021,VALID,21.164,VALID,168,VALID,0,
2016-02-16, 08:26:04,VALID,920.497,VALID,0,VALID,84.3302,VALID,167.716,VALID,21.1836,VALID,161,VALID,0.0203125,
2016-02-16, 08:27:04,VALID,920.509,VALID,0,VALID,83.9567,VALID,172.443,VALID,21.2421,VALID,172,VALID,0,
2016-02-16, 08:28:04,VALID,920.535,VALID,0,VALID,83.6212,VALID,175.774,VALID,21.2811,VALID,163,VALID,0.00703125,
2016-02-16, 08:29:04,VALID,920.548,VALID,0,VALID,83.7813,VALID,178.352,VALID,21.2421,VALID,182,VALID,0,
2016-02-16, 08:30:04,VALID,920.558,VALID,0,VALID,84.1778,VALID,181.146,VALID,21.3006,VALID,157,VALID,0,
2016-02-16, 08:31:04,VALID,920.566,VALID,0,VALID,84.3379,VALID,184.154,VALID,21.3396,VALID,154,VALID,0,
2016-02-16, 08:32:04,VALID,920.562,VALID,0,VALID,84.3683,VALID,188.559,VALID,21.3786,VALID,163,VALID,0.00117188,
2016-02-16, 08:33:04,VALID,920.533,VALID,0,VALID,84.2997,VALID,195.65,VALID,21.4567,VALID,181,VALID,0,
2016-02-16, 08:34:04,VALID,920.53,VALID,0,VALID,83.5221,VALID,199.303,VALID,21.5152,VALID,180,VALID,0,
2016-02-16, 08:35:04,VALID,920.515,VALID,0,VALID,83.9491,VALID,202.849,VALID,21.6144,VALID,180,VALID,0,
2016-02-16, 08:36:04,VALID,920.533,VALID,0,VALID,83.2629,VALID,206.717,VALID,21.6908,VALID,179,VALID,0,
2016-02-16, 08:37:04,VALID,920.494,VALID,0,VALID,82.4701,VALID,216.924,VALID,21.7705,VALID,182,VALID,0,
2016-02-16, 08:38:04,VALID,920.482,VALID,0,VALID,82.31,VALID,226.916,VALID,21.8469,VALID,181,VALID,0,
2016-02-16, 08:39:04,VALID,920.505,VALID,0,VALID,81.4028,VALID,248.297,VALID,21.9071,VALID,167,VALID,0.740625,
2016-02-16, 08:40:04,VALID,920.524,VALID,0,VALID,81.4638,VALID,265.165,VALID,21.9249,VALID,168,VALID,0.295312,
2016-02-16, 08:41:04,VALID,920.5,VALID,0,VALID,82.5997,VALID,291.058,VALID,21.9444,VALID,149,VALID,0,
2016-02-16, 08:42:04,VALID,920.496,VALID,0,VALID,81.7535,VALID,283,VALID,22.0225,VALID,156,VALID,0.1625,
2016-02-16, 08:43:04,VALID,920.501,VALID,0,VALID,82.8742,VALID,292.133,VALID,22.1396,VALID,172,VALID,0,
2016-02-16, 08:44:04,VALID,920.473,VALID,0,VALID,81.3647,VALID,399.896,VALID,22.2957,VALID,148,VALID,0.00234375,
2016-02-16, 08:45:04,VALID,920.498,VALID,0,VALID,80.2898,VALID,331.134,VALID,22.3916,VALID,144,VALID,0.601953,
2016-02-16, 08:46:04,VALID,920.506,VALID,0,VALID,81.7611,VALID,357.672,VALID,22.5494,VALID,173,VALID,0.0148437,
2016-02-16, 08:47:04,VALID,920.555,VALID,0,VALID,80.4347,VALID,368.631,VALID,22.647,VALID,141,VALID,1.18203,
2016-02-16, 08:48:04,VALID,920.566,VALID,0,VALID,79.4284,VALID,334.679,VALID,22.7233,VALID,151,VALID,0.910547,
2016-02-16, 08:49:04,VALID,920.538,VALID,0,VALID,78.8337,VALID,333.927,VALID,22.8031,VALID,145,VALID,0.459766,
2016-02-16, 08:50:04,VALID,920.541,VALID,0,VALID,79.436,VALID,315.555,VALID,22.8209,VALID,152,VALID,0.558203,
2016-02-16, 08:51:04,VALID,920.56,VALID,0,VALID,80.0916,VALID,340.051,VALID,22.9397,VALID,183,VALID,0.00585938,
2016-02-16, 08:52:04,VALID,920.536,VALID,0,VALID,79.0777,VALID,454.476,VALID,23.016,VALID,134,VALID,0.201172,
2016-02-16, 08:53:04,VALID,920.531,VALID,0,VALID,79.3903,VALID,419.021,VALID,23.0941,VALID,161,VALID,0.0847656,
2016-02-16, 08:54:04,VALID,920.531,VALID,0,VALID,78.6432,VALID,283.752,VALID,23.213,VALID,142,VALID,0.484766,
2016-02-16, 08:55:04,VALID,920.543,VALID,0,VALID,78.2315,VALID,293.852,VALID,23.2911,VALID,156,VALID,0,
2016-02-16, 08:56:04,VALID,920.502,VALID,0,VALID,77.8808,VALID,283.43,VALID,23.2698,VALID,148,VALID,0.111719,
2016-02-16, 08:57:04,VALID,920.536,VALID,0,VALID,79.3293,VALID,438.252,VALID,23.2893,VALID,141,VALID,0,
2016-02-16, 08:58:04,VALID,920.526,VALID,0,VALID,77.4387,VALID,422.029,VALID,23.3674,VALID,141,VALID,1.09844,
2016-02-16, 08:59:04,VALID,920.559,VALID,0,VALID,77.797,VALID,378.73,VALID,23.465,VALID,174,VALID,0,
2016-02-16, 09:00:04,VALID,920.511,VALID,0,VALID,78.4754,VALID,350.688,VALID,23.6992,VALID,151,VALID,0.180469,
2016-02-16, 09:01:04,VALID,920.528,VALID,0,VALID,76.4324,VALID,468.873,VALID,23.7578,VALID,147,VALID,0.251172,
2016-02-16, 09:02:04,VALID,920.499,VALID,0,VALID,76.783,VALID,358.101,VALID,23.8163,VALID,163,VALID,0.263672,
2016-02-16, 09:03:04,VALID,920.498,VALID,0,VALID,76.4247,VALID,390.763,VALID,23.8358,VALID,181,VALID,1.77344,
2016-02-16, 09:04:04,VALID,920.479,VALID,0,VALID,76.4324,VALID,490.469,VALID,23.8926,VALID,145,VALID,0.203125,
2016-02-16, 09:05:04,VALID,920.465,VALID,0,VALID,75.9521,VALID,286.438,VALID,23.9139,VALID,153,VALID,0.707812,
2016-02-16, 09:06:04,VALID,920.488,VALID,0,VALID,75.5252,VALID,555.041,VALID,23.8926,VALID,140,VALID,0.751562,
2016-02-16, 09:07:04,VALID,920.51,VALID,0,VALID,76.9279,VALID,522.809,VALID,23.9139,VALID,165,VALID,0.210156,
2016-02-16, 09:08:04,VALID,920.462,VALID,0,VALID,75.7005,VALID,508.734,VALID,23.9725,VALID,166,VALID,0.991016,
2016-02-16, 09:09:04,VALID,920.5,VALID,0,VALID,76.0664,VALID,493.692,VALID,23.9512,VALID,188,VALID,0.273438,
2016-02-16, 09:10:04,VALID,920.518,VALID,0,VALID,76.4934,VALID,491.543,VALID,23.992,VALID,158,VALID,1.03594,
2016-02-16, 09:11:04,VALID,920.517,VALID,0,VALID,76.3866,VALID,421.169,VALID,24.1073,VALID,166,VALID,0.258203,
2016-02-16, 09:12:04,VALID,920.516,VALID,0,VALID,75.1821,VALID,465.113,VALID,24.1659,VALID,180,VALID,1.28047,
2016-02-16, 09:13:04,VALID,920.535,VALID,0,VALID,74.2749,VALID,465.22,VALID,24.283,VALID,168,VALID,0.639844,
2016-02-16, 09:14:04,VALID,920.552,VALID,0,VALID,74.3664,VALID,455.443,VALID,24.3611,VALID,163,VALID,0.0523437,
2016-02-16, 09:15:04,VALID,920.594,VALID,0,VALID,74.7019,VALID,468.873,VALID,24.402,VALID,158,VALID,1.03398,
2016-02-16, 09:16:04,VALID,920.576,VALID,0,VALID,74.2063,VALID,451.038,VALID,24.4197,VALID,170,VALID,0.566406,
2016-02-16, 09:17:04,VALID,920.592,VALID,0,VALID,73.2687,VALID,477.254,VALID,24.4587,VALID,162,VALID,0.663281,
2016-02-16, 09:18:04,VALID,920.611,VALID,0,VALID,74.5646,VALID,486.816,VALID,24.4587,VALID,166,VALID,0.112891,
2016-02-16, 09:19:04,VALID,920.593,VALID,0,VALID,73.6727,VALID,489.932,VALID,24.4978,VALID,127,VALID,0.195703,
2016-02-16, 09:20:04,VALID,920.61,VALID,0,VALID,74.5951,VALID,503.254,VALID,24.693,VALID,142,VALID,0.483594,
2016-02-16, 09:21:04,VALID,920.618,VALID,0,VALID,72.1404,VALID,507.122,VALID,24.7516,VALID,118,VALID,2.30898,
2016-02-16, 09:22:04,VALID,920.622,VALID,0,VALID,74.5951,VALID,510.99,VALID,24.773,VALID,96,VALID,0.178906,
2016-02-16, 09:23:04,VALID,920.575,VALID,0,VALID,72.0108,VALID,525.387,VALID,24.8902,VALID,44,VALID,0.876172,
2016-02-16, 09:24:04,VALID,920.573,VALID,0,VALID,73.6422,VALID,523.346,VALID,25.1831,VALID,61,VALID,0,
2016-02-16, 09:25:04,VALID,920.61,VALID,0,VALID,71.3628,VALID,525.065,VALID,25.5347,VALID,85,VALID,0.0644531,
2016-02-16, 09:26:04,VALID,920.583,VALID,0,VALID,71.2179,VALID,529.47,VALID,25.5913,VALID,86,VALID,0,
2016-02-16, 09:27:04,VALID,920.58,VALID,0,VALID,69.1596,VALID,530.437,VALID,25.6714,VALID,84,VALID,0.401563,
2016-02-16, 09:28:04,VALID,920.568,VALID,0,VALID,71.3475,VALID,527.106,VALID,25.5737,VALID,76,VALID,1.62344,
2016-02-16, 09:29:04,VALID,920.59,VALID,0,VALID,71.4848,VALID,527.643,VALID,25.5347,VALID,101,VALID,1.75156,
2016-02-16, 09:30:04,VALID,920.545,VALID,0,VALID,68.5498,VALID,522.486,VALID,25.4937,VALID,141,VALID,1.7207,
2016-02-16, 09:31:04,VALID,920.561,VALID,0,VALID,69.6399,VALID,528.718,VALID,25.4351,VALID,115,VALID,2.03477,
2016-02-16, 09:32:04,VALID,920.56,VALID,0,VALID,71.2561,VALID,523.131,VALID,25.4136,VALID,165,VALID,1.38477,
2016-02-16, 09:33:04,VALID,920.551,VALID,0,VALID,67.5968,VALID,517.974,VALID,25.4937,VALID,155,VALID,1.78047,
2016-02-16, 09:34:04,VALID,920.557,VALID,0,VALID,70.1049,VALID,521.519,VALID,25.5113,VALID,121,VALID,1.06328,
2016-02-16, 09:35:04,VALID,920.59,VALID,0,VALID,68.5193,VALID,529.363,VALID,25.357,VALID,147,VALID,1.86615,
2016-02-16, 09:36:04,VALID,920.53,VALID,0,VALID,70.6233,VALID,546.231,VALID,25.2984,VALID,170,VALID,0.0214844,
2016-02-16, 09:37:04,VALID,920.559,VALID,0,VALID,70.7758,VALID,553.322,VALID,25.3198,VALID,126,VALID,0,
2016-02-16, 09:38:04,VALID,920.55,VALID,0,VALID,71.2332,VALID,558.264,VALID,25.4937,VALID,137,VALID,0.969922,
2016-02-16, 09:39:04,VALID,920.561,VALID,0,VALID,68.9462,VALID,569.653,VALID,25.6109,VALID,133,VALID,0.349609,
2016-02-16, 09:40:04,VALID,920.558,VALID,0,VALID,69.4874,VALID,576.314,VALID,25.7085,VALID,178,VALID,0.0902344,
2016-02-16, 09:41:04,VALID,920.56,VALID,0,VALID,67.3224,VALID,584.695,VALID,25.9038,VALID,178,VALID,0,
2016-02-16, 09:42:04,VALID,920.529,VALID,0,VALID,68.0847,VALID,604.034,VALID,26.1968,VALID,79,VALID,0.00195313,
2016-02-16, 09:43:04,VALID,920.549,VALID,0,VALID,66.8802,VALID,619.291,VALID,26.314,VALID,121,VALID,0.423438,
2016-02-16, 09:44:04,VALID,920.591,VALID,0,VALID,66.6973,VALID,667.102,VALID,26.3922,VALID,181,VALID,0.226953,
2016-02-16, 09:45:04,VALID,920.579,VALID,0,VALID,65.4013,VALID,684.615,VALID,26.5289,VALID,176,VALID,1.01016,
2016-02-16, 09:46:04,VALID,920.566,VALID,0,VALID,66.5524,VALID,707.178,VALID,26.5269,VALID,72,VALID,0.759375,
2016-02-16, 09:47:04,VALID,920.547,VALID,0,VALID,65.2336,VALID,697.938,VALID,26.566,VALID,128,VALID,0.121094,
2016-02-16, 09:48:04,VALID,920.589,VALID,0,VALID,66.1103,VALID,656.68,VALID,26.4878,VALID,192,VALID,0.420312,
2016-02-16, 09:49:04,VALID,920.582,VALID,0,VALID,63.2972,VALID,635.407,VALID,26.5269,VALID,178,VALID,0.725,
2016-02-16, 09:50:04,VALID,920.542,VALID,0,VALID,63.2134,VALID,596.836,VALID,26.6246,VALID,205,VALID,0.771094,
2016-02-16, 09:51:04,VALID,920.562,VALID,0,VALID,64.3111,VALID,609.084,VALID,26.605,VALID,164,VALID,0.777734,
2016-02-16, 09:52:04,VALID,920.559,VALID,0,VALID,65.63,VALID,618.969,VALID,26.6636,VALID,125,VALID,0.657812,
2016-02-16, 09:53:04,VALID,920.578,VALID,0,VALID,61.9021,VALID,607.687,VALID,26.6832,VALID,137,VALID,0.00585938,
2016-02-16, 09:54:04,VALID,920.574,VALID,0,VALID,61.2846,VALID,640.564,VALID,26.9197,VALID,137,VALID,0,
2016-02-16, 09:55:04,VALID,920.609,VALID,0,VALID,61.1245,VALID,639.919,VALID,26.9783,VALID,165,VALID,1.33945,
2016-02-16, 09:56:04,VALID,920.612,VALID,0,VALID,61.8411,VALID,520.445,VALID,27.0564,VALID,177,VALID,0.719531,
2016-02-16, 09:57:04,VALID,920.616,VALID,0,VALID,60.0801,VALID,311.042,VALID,26.9587,VALID,160,VALID,0.241406,
2016-02-16, 09:58:04,VALID,920.653,VALID,0,VALID,60.2402,VALID,275.372,VALID,26.8415,VALID,183,VALID,2.10586,
2016-02-16, 09:59:04,VALID,920.61,VALID,0,VALID,61.0559,VALID,272.578,VALID,26.5269,VALID,174,VALID,1.39102,
2016-02-16, 10:00:04,VALID,920.659,VALID,0,VALID,62.7178,VALID,264.95,VALID,26.2945,VALID,189,VALID,2.07852,
2016-02-16, 10:01:04,VALID,920.657,VALID,0,VALID,64.5246,VALID,265.702,VALID,26.0386,VALID,142,VALID,0.164844,
2016-02-16, 10:02:04,VALID,920.645,VALID,0,VALID,65.5385,VALID,266.669,VALID,25.9214,VALID,86,VALID,1.70234,
2016-02-16, 10:03:04,VALID,920.674,VALID,0,VALID,66.2932,VALID,268.603,VALID,25.8648,VALID,40,VALID,1.25,
2016-02-16, 10:04:04,VALID,920.649,VALID,0,VALID,64.2806,VALID,273.653,VALID,25.9038,VALID,39,VALID,0.602734,
2016-02-16, 10:05:04,VALID,920.683,VALID,0,VALID,65.2031,VALID,278.81,VALID,25.9214,VALID,35,VALID,0.659375,
2016-02-16, 10:06:04,VALID,920.673,VALID,0,VALID,64.8524,VALID,286.438,VALID,25.9214,VALID,175,VALID,1.61367,
2016-02-16, 10:07:04,VALID,920.651,VALID,0,VALID,65.9044,VALID,295.248,VALID,25.8452,VALID,171,VALID,0.85,
2016-02-16, 10:08:04,VALID,920.654,VALID,0,VALID,65.4928,VALID,299.653,VALID,25.8257,VALID,181,VALID,0.520703,
2016-02-16, 10:09:04,VALID,920.669,VALID,0,VALID,66.0035,VALID,304.703,VALID,25.8628,VALID,171,VALID,0.898828,
2016-02-16, 10:10:04,VALID,920.67,VALID,0,VALID,65.7062,VALID,307.819,VALID,25.8042,VALID,175,VALID,0.551953,
2016-02-16, 10:11:04,VALID,920.65,VALID,0,VALID,65.6833,VALID,308.356,VALID,25.7671,VALID,186,VALID,1.08594,
2016-02-16, 10:12:04,VALID,920.635,VALID,0,VALID,66.0264,VALID,309.323,VALID,25.648,VALID,165,VALID,0,
2016-02-16, 10:13:04,VALID,920.647,VALID,0,VALID,66.3008,VALID,310.935,VALID,25.7261,VALID,174,VALID,0,
2016-02-16, 10:14:04,VALID,920.665,VALID,0,VALID,66.3923,VALID,315.125,VALID,25.7476,VALID,165,VALID,0.140234,
2016-02-16, 10:15:04,VALID,920.651,VALID,0,VALID,66.8421,VALID,325.439,VALID,25.8257,VALID,164,VALID,0,
2016-02-16, 10:16:04,VALID,920.628,VALID,0,VALID,65.1802,VALID,352.729,VALID,25.9214,VALID,185,VALID,0,
2016-02-16, 10:17:04,VALID,920.64,VALID,0,VALID,65.4089,VALID,348.754,VALID,26.021,VALID,177,VALID,0,
2016-02-16, 10:18:04,VALID,920.66,VALID,0,VALID,66.7887,VALID,350.795,VALID,25.9429,VALID,149,VALID,0,
2016-02-16, 10:19:04,VALID,920.678,VALID,0,VALID,66.7354,VALID,483.378,VALID,25.8433,VALID,144,VALID,0,
2016-02-16, 10:20:04,VALID,920.711,VALID,0,VALID,68.4659,VALID,378.085,VALID,25.7866,VALID,124,VALID,0,
2016-02-16, 10:21:04,VALID,920.709,VALID,0,VALID,67.9475,VALID,364.548,VALID,25.7847,VALID,142,VALID,0,
2016-02-16, 10:22:04,VALID,920.722,VALID,0,VALID,65.8282,VALID,354.126,VALID,25.7066,VALID,133,VALID,1.30625,
2016-02-16, 10:23:04,VALID,920.688,VALID,0,VALID,67.391,VALID,350.043,VALID,25.5308,VALID,128,VALID,0.153516,
2016-02-16, 10:24:04,VALID,920.733,VALID,0,VALID,66.8192,VALID,347.787,VALID,25.3941,VALID,146,VALID,0.0691406,
2016-02-16, 10:25:04,VALID,920.693,VALID,0,VALID,68.0466,VALID,340.374,VALID,25.2788,VALID,133,VALID,0.229297,
2016-02-16, 10:26:04,VALID,920.686,VALID,0,VALID,67.6883,VALID,336.828,VALID,25.2398,VALID,169,VALID,0.49375,
2016-02-16, 10:27:04,VALID,920.664,VALID,0,VALID,69.3655,VALID,336.506,VALID,25.3374,VALID,135,VALID,0,
2016-02-16, 10:28:04,VALID,920.692,VALID,0,VALID,70.2955,VALID,335.431,VALID,25.355,VALID,163,VALID,0.179297,
2016-02-16, 10:29:04,VALID,920.698,VALID,0,VALID,69.1977,VALID,335.109,VALID,25.2965,VALID,133,VALID,2.51016,
2016-02-16, 10:30:04,VALID,920.648,VALID,0,VALID,70.5776,VALID,333.82,VALID,25.1988,VALID,139,VALID,0.222656,
2016-02-16, 10:31:04,VALID,920.672,VALID,0,VALID,70.8978,VALID,331.456,VALID,25.2788,VALID,165,VALID,0,
2016-02-16, 10:32:04,VALID,920.641,VALID,0,VALID,69.3883,VALID,328.877,VALID,25.3765,VALID,174,VALID,0.00117188,
2016-02-16, 10:33:04,VALID,920.662,VALID,0,VALID,69.6247,VALID,328.34,VALID,25.316,VALID,135,VALID,1.57422,
2016-02-16, 10:34:04,VALID,920.621,VALID,0,VALID,71.7973,VALID,330.596,VALID,25.2379,VALID,148,VALID,0.784766,
2016-02-16, 10:35:04,VALID,920.651,VALID,0,VALID,70.6157,VALID,347.142,VALID,25.1988,VALID,147,VALID,1.32148,
2016-02-16, 10:36:04,VALID,920.649,VALID,0,VALID,70.1431,VALID,324.365,VALID,25.1207,VALID,135,VALID,1.21797,
2016-02-16, 10:37:04,VALID,920.67,VALID,0,VALID,72.2624,VALID,315.34,VALID,25.0993,VALID,155,VALID,0.157813,
2016-02-16, 10:38:04,VALID,920.69,VALID,0,VALID,71.0502,VALID,309.108,VALID,25.1579,VALID,185,VALID,1.51758,
2016-02-16, 10:39:04,VALID,920.673,VALID,0,VALID,72.4148,VALID,301.48,VALID,25.275,VALID,181,VALID,0,
2016-02-16, 10:40:04,VALID,920.673,VALID,0,VALID,70.0287,VALID,293.314,VALID,25.2769,VALID,134,VALID,2.46914,
2016-02-16, 10:41:04,VALID,920.686,VALID,0,VALID,70.1583,VALID,285.256,VALID,25.1793,VALID,152,VALID,1.00391,
2016-02-16, 10:42:04,VALID,920.667,VALID,0,VALID,70.6233,VALID,279.24,VALID,25.0993,VALID,136,VALID,1.63437,
2016-02-16, 10:43:04,VALID,920.755,VALID,0,VALID,70.9969,VALID,275.479,VALID,25.0602,VALID,133,VALID,1.24961,
2016-02-16, 10:44:04,VALID,920.737,VALID,0,VALID,71.3094,VALID,272.471,VALID,25.0212,VALID,150,VALID,0.0105469,
2016-02-16, 10:45:04,VALID,920.713,VALID,0,VALID,72.9332,VALID,269.785,VALID,25.1207,VALID,131,VALID,0.0230469,
2016-02-16, 10:46:04,VALID,920.768,VALID,0,VALID,72.8417,VALID,266.776,VALID,25.0993,VALID,181,VALID,0.516016,
2016-02-16, 10:47:04,VALID,920.768,VALID,0,VALID,71.9269,VALID,263.768,VALID,25.1774,VALID,167,VALID,0,
2016-02-16, 10:48:04,VALID,920.763,VALID,0,VALID,71.6906,VALID,260.545,VALID,25.3355,VALID,167,VALID,0.00195313,
2016-02-16, 10:49:04,VALID,920.814,VALID,0,VALID,71.4238,VALID,257.966,VALID,25.3746,VALID,173,VALID,0.301953,
2016-02-16, 10:50:04,VALID,920.825,VALID,0,VALID,71.035,VALID,255.71,VALID,25.3336,VALID,145,VALID,1.25508,
2016-02-16, 10:51:04,VALID,920.812,VALID,0,VALID,72.0337,VALID,255.495,VALID,25.2555,VALID,149,VALID,0.344922,
2016-02-16, 10:52:04,VALID,920.864,VALID,0,VALID,72.209,VALID,257.429,VALID,25.2965,VALID,127,VALID,0,
2016-02-16, 10:53:04,VALID,920.84,VALID,0,VALID,73.6727,VALID,260.437,VALID,25.3336,VALID,128,VALID,0,
2016-02-16, 10:54:04,VALID,920.837,VALID,0,VALID,72.0718,VALID,264.305,VALID,25.3922,VALID,144,VALID,0,
2016-02-16, 10:55:04,VALID,920.837,VALID,0,VALID,71.6296,VALID,268.818,VALID,25.5503,VALID,144,VALID,0,
2016-02-16, 10:56:04,VALID,920.842,VALID,0,VALID,70.3717,VALID,273.867,VALID,25.5698,VALID,158,VALID,0.375,
2016-02-16, 10:57:04,VALID,920.8,VALID,0,VALID,69.7848,VALID,281.173,VALID,25.3941,VALID,122,VALID,0.246094,
2016-02-16, 10:58:04,VALID,920.797,VALID,0,VALID,71.7058,VALID,289.232,VALID,25.3336,VALID,79,VALID,1.33906,
2016-02-16, 10:59:04,VALID,920.79,VALID,0,VALID,69.3121,VALID,302.125,VALID,25.236,VALID,120,VALID,0.655859,
2016-02-16, 11:00:04,VALID,920.752,VALID,0,VALID,70.9206,VALID,308.893,VALID,25.2183,VALID,181,VALID,0.0511719,
2016-02-16, 11:01:04,VALID,920.805,VALID,0,VALID,71.7287,VALID,318.241,VALID,25.2769,VALID,156,VALID,0.138281,
2016-02-16, 11:02:04,VALID,920.798,VALID,0,VALID,71.6525,VALID,331.563,VALID,25.3355,VALID,132,VALID,0.0964844,
2016-02-16, 11:03:04,VALID,920.785,VALID,0,VALID,68.9767,VALID,342.093,VALID,25.3922,VALID,197,VALID,0.948438,
2016-02-16, 11:04:04,VALID,920.787,VALID,0,VALID,69.1749,VALID,343.597,VALID,25.4917,VALID,186,VALID,0.19375,
2016-02-16, 11:05:04,VALID,920.79,VALID,0,VALID,72.026,VALID,343.597,VALID,25.6284,VALID,182,VALID,0,
2016-02-16, 11:06:04,VALID,920.821,VALID,0,VALID,71.622,VALID,343.06,VALID,25.5894,VALID,127,VALID,0.70625,
2016-02-16, 11:07:04,VALID,920.775,VALID,0,VALID,70.1583,VALID,341.233,VALID,25.4527,VALID,110,VALID,0.429688,
2016-02-16, 11:08:04,VALID,920.796,VALID,0,VALID,71.0121,VALID,338.44,VALID,25.3922,VALID,125,VALID,1.32461,
2016-02-16, 11:09:04,VALID,920.801,VALID,0,VALID,71.8736,VALID,334.787,VALID,25.3531,VALID,145,VALID,1.25273,
2016-02-16, 11:10:04,VALID,920.765,VALID,0,VALID,72.0565,VALID,332.96,VALID,25.3336,VALID,119,VALID,1.35039,
2016-02-16, 11:11:04,VALID,920.797,VALID,0,VALID,72.0413,VALID,332.315,VALID,25.355,VALID,145,VALID,1.04414,
2016-02-16, 11:12:04,VALID,920.732,VALID,0,VALID,71.744,VALID,333.175,VALID,25.3355,VALID,177,VALID,0.0925781,
2016-02-16, 11:13:04,VALID,920.737,VALID,0,VALID,70.8825,VALID,335.431,VALID,25.355,VALID,183,VALID,0.262891,
2016-02-16, 11:14:04,VALID,920.732,VALID,0,VALID,70.5852,VALID,341.448,VALID,25.3922,VALID,130,VALID,1.40859,
2016-02-16, 11:15:04,VALID,920.76,VALID,0,VALID,71.1493,VALID,349.399,VALID,25.3746,VALID,155,VALID,0.280078,
2016-02-16, 11:16:04,VALID,920.705,VALID,0,VALID,69.8457,VALID,358.209,VALID,25.3746,VALID,148,VALID,0.544141,
2016-02-16, 11:17:04,VALID,920.679,VALID,0,VALID,70.0668,VALID,366.482,VALID,25.3355,VALID,155,VALID,1.27383,
2016-02-16, 11:18:04,VALID,920.659,VALID,0,VALID,71.8964,VALID,374.432,VALID,25.2574,VALID,142,VALID,0.698047,
2016-02-16, 11:19:04,VALID,920.659,VALID,0,VALID,70.8978,VALID,379.16,VALID,25.2965,VALID,172,VALID,1.01953,
2016-02-16, 11:20:04,VALID,920.615,VALID,0,VALID,71.0045,VALID,384.639,VALID,25.355,VALID,125,VALID,1.68516,
2016-02-16, 11:21:04,VALID,920.594,VALID,0,VALID,71.2027,VALID,388.292,VALID,25.316,VALID,143,VALID,0.886719,
2016-02-16, 11:22:04,VALID,920.619,VALID,0,VALID,69.7161,VALID,389.152,VALID,25.4136,VALID,176,VALID,0.972656,
2016-02-16, 11:23:04,VALID,920.589,VALID,0,VALID,69.1444,VALID,388.185,VALID,25.4722,VALID,187,VALID,1.43945,
2016-02-16, 11:24:04,VALID,920.6,VALID,0,VALID,69.2969,VALID,386.681,VALID,25.4722,VALID,141,VALID,0.732422,
2016-02-16, 11:25:04,VALID,920.584,VALID,0,VALID,70.6233,VALID,385.606,VALID,25.4917,VALID,182,VALID,0.272656,
2016-02-16, 11:26:04,VALID,920.548,VALID,0,VALID,69.7543,VALID,386.251,VALID,25.4312,VALID,149,VALID,0.426953,
2016-02-16, 11:27:04,VALID,920.555,VALID,0,VALID,69.7009,VALID,388.507,VALID,25.4722,VALID,148,VALID,0.0664063,
2016-02-16, 11:28:04,VALID,920.523,VALID,0,VALID,69.9143,VALID,393.664,VALID,25.4722,VALID,146,VALID,0,
2016-02-16, 11:29:04,VALID,920.51,VALID,0,VALID,69.7314,VALID,402.475,VALID,25.4898,VALID,167,VALID,0.11875,
2016-02-16, 11:30:04,VALID,920.487,VALID,0,VALID,68.969,VALID,417.624,VALID,25.5894,VALID,188,VALID,1.3293,
2016-02-16, 11:31:04,VALID,920.452,VALID,0,VALID,68.0085,VALID,429.872,VALID,25.687,VALID,183,VALID,1.4543,
2016-02-16, 11:32:04,VALID,920.437,VALID,0,VALID,68.7403,VALID,453.831,VALID,25.8433,VALID,161,VALID,0,
2016-02-16, 11:33:04,VALID,920.394,VALID,0,VALID,66.8574,VALID,472.204,VALID,26.0366,VALID,106,VALID,0.446484,
2016-02-16, 11:34:04,VALID,920.376,VALID,0,VALID,66.8269,VALID,474.353,VALID,26.0952,VALID,70,VALID,0,
2016-02-16, 11:35:04,VALID,920.335,VALID,0,VALID,65.8816,VALID,479.832,VALID,26.1753,VALID,102,VALID,0,
2016-02-16, 11:36:04,VALID,920.322,VALID,0,VALID,65.2031,VALID,488.213,VALID,26.273,VALID,121,VALID,0.0015625,
2016-02-16, 11:37:04,VALID,920.293,VALID,0,VALID,65.0201,VALID,503.362,VALID,26.3511,VALID,128,VALID,0,
2016-02-16, 11:38:04,VALID,920.304,VALID,0,VALID,66.3771,VALID,529.792,VALID,26.566,VALID,101,VALID,0,
2016-02-16, 11:39:04,VALID,920.277,VALID,0,VALID,64.3797,VALID,547.198,VALID,26.7223,VALID,119,VALID,0,
2016-02-16, 11:40:04,VALID,920.28,VALID,0,VALID,64.6847,VALID,638.953,VALID,26.7223,VALID,157,VALID,0.299219,